Location: *
(58.4167°N, 22.5000°E)
Time: 04:23:30
(UTC+00:00)

FREGAT/IRIS - Pass Details

Date: 22 September 2019
Orbit: 347 x 350 km, 97.0° (Epoch: 18 October)

Event Time Altitude Azimuth Distance (km) Brightness Sun altitude
Rises 17:26:52 0° 163° (SSE) 2,170 6.1 -8.1°
Reaches altitude 10° 17:28:46 10° 163° (SSE) 1,331 5.0 -8.4°
Maximum altitude 17:31:36 87° 78° (ENE) 364 2.4 -8.7°
Drops below altitude 10° 17:34:28 10° 346° (NNW) 1,345 5.7 -9.1°
Sets 17:36:25 0° 346° (NNW) 2,197 6.8 -9.3°
